RESURS O1 DEB, 23346

Orbit data source: Space-Track

RESURS O1 DEB, 23346 is space debris in SSO originally from a launch on Fri, 04 Nov 1994 UTC launched from the Tyuratam Missile And Space Complex (TTMTR). Debris objects in space refer to the collection of defunct objects orbiting the Earth. Examples of debris include non-operational satellites, rocket bodies, and fragments generated from explosions, collisions, or faulty payload assembly.

Loading next visibility...
Identifier
23346, 1994-074E
Orbit
SSO
Country
Flag of CISCIS
Related business
Manufacturer
Yuzhnoe
Mission
Spacecraft
Bus & Motor
SEP MOTOR COVER, Unknown motor
Mass
~0 kg wet, ~1 kg dry
Launch date (UTC)
1994-11-04 (31 years ago)
Launch vehicle
Unknown
Launch site
Tyuratam Missile And Space Complex (TTMTR)
Object type
Payload
Rocket body
Debris
Shape & HBR
Unknown
Radar Cross Section
Small (<0.1 m²)

Expand to show TLE details & history
Last TLE update: 5 hours ago

TLE from 5 hours ago
0 RESURS O1 DEB
1 23346U 94074E   26034.16486258  .00001083  00000-0  31554-3 0  9990
2 23346  98.4671 134.4021 0170856 122.3859 239.3991 14.38012104631906
Epoch: 2026-02-03T03:57Z
TLE epoch observation values (Epoch: 2026-02-03T03:57:24.126Z)
Latitude
-0.00003°
Longitude
-58.29814°
Altitude
831.689 km
Speed
7.404 km/s
True Right ascension
08h 57m 36s
True Declination
0° 00' 00"
Sunlit
Object was in full shadow at epoch
Visualization orbit readout
Latitude
Unknown
Longitude
Unknown
Altitude
Unknown
Speed
Unknown
Apparent Right ascension
Unknown
Apparent Declination
Unknown
Sunlit
N/A
Visualization observer readout
Local Sidereal Time
11:16:40
Azimuth
Unknown
Elevation
Unknown
Doppler factor
Unknown
Orbital elements
Apogee altitude
884.193 km
Perigee altitude
640.199 km
Semi-major axis
7,140.333 km
Eccentricity
0.01709
Inclination
98.4671°
RAAN
134.4021°
Arg. of periapsis
122.3859°
True anomaly
237.73227°
Mean anomaly
239.3991°
Eccentric anomaly
238.56385°
Mean motion
3.59721 °/min
Orbital period
100.08 mins
BSTAR
0.00031554
Loading maneuver chart data...
Computing Atmospheric mass density...

Documentation

Showing up to 5 results
|